Time,TemperatureF,DewpointF,PressureIn,WindDirection,WindDirectionDegrees,WindSpeedMPH,WindSpeedGustMPH,Humidity,HourlyPrecipIn,Conditions,Clouds,dailyrainin,SoftwareType,DateUTC
2013-08-29 00:08:00,69.0,-99.9,29.90,ESE,102,5.0,-999.0,-999,-99.99,,,-99.99,,2013-08-29 04:08:00,
2013-08-29 00:28:00,68.0,-99.9,29.90,ENE,68,6.0,-999.0,-999,-99.99,,,-99.99,,2013-08-29 04:28:00,
2013-08-29 00:37:00,68.0,-99.9,29.90,ENE,68,6.0,-999.0,-999,-99.99,,,-99.99,,2013-08-29 04:37:00,
2013-08-29 00:54:00,67.0,-99.9,29.91,East,95,7.0,-999.0,-999,-99.99,,,-99.99,,2013-08-29 04:54:00,
2013-08-29 01:05:00,67.0,-99.9,29.91,East,95,7.0,-999.0,-999,-99.99,,,-99.99,,2013-08-29 05:05:00,
2013-08-29 01:23:00,66.0,-99.9,29.91,NE,47,6.0,-999.0,-999,-99.99,,,-99.99,,2013-08-29 05:23:00,
2013-08-29 01:34:00,66.0,-99.9,29.91,NE,47,6.0,-999.0,-999,-99.99,,,-99.99,,2013-08-29 05:34:00,
2013-08-29 01:42:00,66.0,-99.9,29.91,NE,47,6.0,-999.0,-999,-99.99,,,-99.99,,2013-08-29 05:42:00,
2013-08-29 01:52:00,66.0,-99.9,29.91,ENE,58,8.0,-999.0,-999,-99.99,,,-99.99,,2013-08-29 05:52:00,
2013-08-29 02:02:00,66.0,-99.9,29.91,ENE,58,8.0,-999.0,-999,-99.99,,,-99.99,,2013-08-29 06:02:00,
2013-08-29 02:22:00,66.0,-99.9,29.90,ENE,67,8.0,-999.0,-999,-99.99,,,-99.99,,2013-08-29 06:22:00,
2013-08-29 02:32:00,66.0,-99.9,29.90,ENE,67,8.0,-999.0,-999,-99.99,,,-99.99,,2013-08-29 06:32:00,
2013-08-29 02:52:00,66.0,-99.9,29.90,ENE,57,7.0,-999.0,-999,-99.99,,,-99.99,,2013-08-29 06:52:00,
2013-08-29 03:01:00,66.0,-99.9,29.90,ENE,57,7.0,-999.0,-999,-99.99,,,-99.99,,2013-08-29 07:01:00,
2013-08-29 03:22:00,67.0,-99.9,29.91,NE,54,7.0,-999.0,-999,-99.99,,,-99.99,,2013-08-29 07:22:00,
2013-08-29 03:32:00,67.0,-99.9,29.91,NE,54,7.0,-999.0,-999,-99.99,,,-99.99,,2013-08-29 07:32:00,
2013-08-29 03:53:00,67.0,-99.9,29.91,ENE,59,8.0,-999.0,-999,-99.99,,,-99.99,,2013-08-29 07:53:00,
2013-08-29 04:02:00,67.0,-99.9,29.91,ENE,59,8.0,-999.0,-999,-99.99,,,-99.99,,2013-08-29 08:02:00,
2013-08-29 04:12:00,67.0,-99.9,29.91,ENE,59,8.0,-999.0,-999,-99.99,,,-99.99,,2013-08-29 08:12:00,
2013-08-29 04:22:00,67.0,-99.9,29.91,NE,41,8.0,-999.0,-999,-99.99,,,-99.99,,2013-08-29 08:22:00,
2013-08-29 04:32:00,67.0,-99.9,29.91,NE,41,8.0,-999.0,-999,-99.99,,,-99.99,,2013-08-29 08:32:00,
2013-08-29 04:52:00,67.0,-99.9,29.92,NNE,31,9.0,-999.0,-999,-99.99,,,-99.99,,2013-08-29 08:52:00,
2013-08-29 05:01:00,67.0,-99.9,29.92,NNE,31,9.0,-999.0,-999,-99.99,,,-99.99,,2013-08-29 09:01:00,
2013-08-29 05:22:00,67.0,-99.9,29.91,NE,56,8.0,-999.0,-999,-99.99,,,-99.99,,2013-08-29 09:22:00,
2013-08-29 05:34:00,67.0,-99.9,29.91,NE,56,8.0,-999.0,-999,-99.99,,,-99.99,,2013-08-29 09:34:00,
2013-08-29 05:55:00,68.0,-99.9,29.92,NE,42,11.0,-999.0,-999,-99.99,,,-99.99,,2013-08-29 09:55:00,
2013-08-29 06:06:00,68.0,-99.9,29.92,NE,42,11.0,-999.0,-999,-99.99,,,-99.99,,2013-08-29 10:06:00,
2013-08-29 06:24:00,68.0,-99.9,29.93,NE,50,9.0,-999.0,-999,-99.99,,,-99.99,,2013-08-29 10:24:00,
2013-08-29 06:33:00,68.0,-99.9,29.93,NE,50,9.0,-999.0,-999,-99.99,,,-99.99,,2013-08-29 10:33:00,
2013-08-29 06:53:00,68.0,-99.9,29.93,NE,47,9.0,-999.0,-999,-99.99,,,-99.99,,2013-08-29 10:53:00,
2013-08-29 07:03:00,68.0,-99.9,29.93,NE,47,9.0,-999.0,-999,-99.99,,,-99.99,,2013-08-29 11:03:00,
2013-08-29 07:22:00,68.0,-99.9,29.94,NE,55,11.0,-999.0,-999,-99.99,,,-99.99,,2013-08-29 11:22:00,
2013-08-29 07:33:00,68.0,-99.9,29.94,NE,55,11.0,-999.0,-999,-99.99,,,-99.99,,2013-08-29 11:33:00,
2013-08-29 07:52:00,68.0,-99.9,29.94,ENE,57,10.0,-999.0,-999,-99.99,,,-99.99,,2013-08-29 11:52:00,
2013-08-29 08:02:00,68.0,-99.9,29.94,ENE,57,10.0,-999.0,-999,-99.99,,,-99.99,,2013-08-29 12:02:00,
2013-08-29 08:22:00,68.0,-99.9,29.95,NE,35,9.0,-999.0,-999,-99.99,,,-99.99,,2013-08-29 12:22:00,
2013-08-29 08:32:00,68.0,-99.9,29.95,NE,35,9.0,-999.0,-999,-99.99,,,-99.99,,2013-08-29 12:32:00,
2013-08-29 08:42:00,68.0,-99.9,29.95,NE,35,9.0,-999.0,-999,-99.99,,,-99.99,,2013-08-29 12:42:00,
2013-08-29 08:52:00,68.0,-99.9,29.97,NE,53,11.0,-999.0,-999,-99.99,,,-99.99,,2013-08-29 12:52:00,
2013-08-29 09:02:00,68.0,-99.9,29.97,NE,53,11.0,-999.0,-999,-99.99,,,-99.99,,2013-08-29 13:02:00,
2013-08-29 09:22:00,68.0,-99.9,29.97,East,80,12.0,-999.0,-999,-99.99,,,-99.99,,2013-08-29 13:22:00,
2013-08-29 09:32:00,68.0,-99.9,29.97,East,80,12.0,-999.0,-999,-99.99,,,-99.99,,2013-08-29 13:32:00,
2013-08-29 09:52:00,68.0,-99.9,29.98,ENE,68,10.0,-999.0,-999,-99.99,,,-99.99,,2013-08-29 13:52:00,
2013-08-29 10:02:00,68.0,-99.9,29.98,ENE,68,10.0,-999.0,-999,-99.99,,,-99.99,,2013-08-29 14:02:00,
2013-08-29 10:22:00,68.0,-99.9,29.98,ENE,58,8.0,-999.0,-999,-99.99,,,-99.99,,2013-08-29 14:22:00,
2013-08-29 10:32:00,68.0,-99.9,29.98,ENE,58,8.0,-999.0,-999,-99.99,,,-99.99,,2013-08-29 14:32:00,
2013-08-29 10:52:00,68.0,-99.9,29.98,NE,43,11.0,-999.0,-999,-99.99,,,-99.99,,2013-08-29 14:52:00,
2013-08-29 11:02:00,68.0,-99.9,29.98,NE,43,11.0,-999.0,-999,-99.99,,,-99.99,,2013-08-29 15:02:00,
2013-08-29 11:22:00,68.0,-99.9,29.99,NE,38,10.0,-999.0,-999,-99.99,,,-99.99,,2013-08-29 15:22:00,
2013-08-29 11:33:00,68.0,-99.9,29.99,NE,38,10.0,-999.0,-999,-99.99,,,-99.99,,2013-08-29 15:33:00,
2013-08-29 11:53:00,68.0,-99.9,29.99,ENE,57,13.0,-999.0,-999,-99.99,,,-99.99,,2013-08-29 15:53:00,
2013-08-29 12:05:00,68.0,-99.9,29.99,ENE,57,13.0,-999.0,-999,-99.99,,,-99.99,,2013-08-29 16:05:00,
2013-08-29 12:13:00,68.0,-99.9,29.99,ENE,57,13.0,-999.0,-999,-99.99,,,-99.99,,2013-08-29 16:13:00,
2013-08-29 12:24:00,68.0,-99.9,29.98,ENE,57,15.0,-999.0,-999,-99.99,,,-99.99,,2013-08-29 16:24:00,
2013-08-29 12:34:00,68.0,-99.9,29.98,ENE,57,15.0,-999.0,-999,-99.99,,,-99.99,,2013-08-29 16:34:00,
2013-08-29 12:54:00,68.0,-99.9,29.98,NE,54,17.0,-999.0,-999,-99.99,,,-99.99,,2013-08-29 16:54:00,
2013-08-29 13:04:00,68.0,-99.9,29.98,NE,54,17.0,-999.0,-999,-99.99,,,-99.99,,2013-08-29 17:04:00,
2013-08-29 13:23:00,68.0,-99.9,29.98,NNE,25,15.0,-999.0,-999,-99.99,,,-99.99,,2013-08-29 17:23:00,
2013-08-29 13:34:00,68.0,-99.9,29.98,NNE,25,15.0,-999.0,-999,-99.99,,,-99.99,,2013-08-29 17:34:00,
2013-08-29 13:53:00,67.0,-99.9,29.99,NE,52,15.0,-999.0,-999,-99.99,,,-99.99,,2013-08-29 17:53:00,
2013-08-29 14:02:00,67.0,-99.9,29.99,NE,52,15.0,-999.0,-999,-99.99,,,-99.99,,2013-08-29 18:02:00,
2013-08-29 14:22:00,68.0,-99.9,29.98,NE,50,10.0,-999.0,-999,-99.99,,,-99.99,,2013-08-29 18:22:00,
2013-08-29 14:32:00,68.0,-99.9,29.98,NE,50,10.0,-999.0,-999,-99.99,,,-99.99,,2013-08-29 18:32:00,
2013-08-29 14:52:00,68.0,-99.9,29.98,ENE,57,11.0,-999.0,-999,-99.99,,,-99.99,,2013-08-29 18:52:00,
2013-08-29 15:01:00,68.0,-99.9,29.98,ENE,57,11.0,-999.0,-999,-99.99,,,-99.99,,2013-08-29 19:01:00,
2013-08-29 15:22:00,68.0,-99.9,29.98,ENE,77,10.0,-999.0,-999,-99.99,,,-99.99,,2013-08-29 19:22:00,
2013-08-29 15:32:00,68.0,-99.9,29.98,ENE,77,10.0,-999.0,-999,-99.99,,,-99.99,,2013-08-29 19:32:00,
2013-08-29 15:53:00,67.0,-99.9,29.98,NE,53,11.0,-999.0,-999,-99.99,,,-99.99,,2013-08-29 19:53:00,
2013-08-29 16:02:00,67.0,-99.9,29.98,NE,53,11.0,-999.0,-999,-99.99,,,-99.99,,2013-08-29 20:02:00,
2013-08-29 16:22:00,67.0,-99.9,29.98,NE,46,12.0,-999.0,-999,-99.99,,,-99.99,,2013-08-29 20:22:00,
2013-08-29 16:32:00,67.0,-99.9,29.98,NE,46,12.0,-999.0,-999,-99.99,,,-99.99,,2013-08-29 20:32:00,
2013-08-29 16:52:00,67.0,-99.9,29.99,ENE,66,14.0,-999.0,-999,-99.99,,,-99.99,,2013-08-29 20:52:00,
2013-08-29 17:02:00,67.0,-99.9,29.99,ENE,66,14.0,-999.0,-999,-99.99,,,-99.99,,2013-08-29 21:02:00,
2013-08-29 17:22:00,67.0,-99.9,30.00,ENE,58,13.0,-999.0,-999,-99.99,,,-99.99,,2013-08-29 21:22:00,
2013-08-29 17:33:00,67.0,-99.9,30.00,ENE,58,13.0,-999.0,-999,-99.99,,,-99.99,,2013-08-29 21:33:00,
2013-08-29 17:54:00,66.0,-99.9,30.00,NE,43,12.0,-999.0,-999,-99.99,,,-99.99,,2013-08-29 21:54:00,
2013-08-29 18:04:00,66.0,-99.9,30.00,NE,43,12.0,-999.0,-999,-99.99,,,-99.99,,2013-08-29 22:04:00,
2013-08-29 18:24:00,66.0,-99.9,30.01,East,95,9.0,-999.0,-999,-99.99,,,-99.99,,2013-08-29 22:24:00,
2013-08-29 18:34:00,66.0,-99.9,30.01,East,95,9.0,-999.0,-999,-99.99,,,-99.99,,2013-08-29 22:34:00,
2013-08-29 18:53:00,65.0,-99.9,30.01,East,92,13.0,-999.0,-999,-99.99,,,-99.99,,2013-08-29 22:53:00,
2013-08-29 19:03:00,65.0,-99.9,30.01,East,92,13.0,-999.0,-999,-99.99,,,-99.99,,2013-08-29 23:03:00,
2013-08-29 19:22:00,65.0,-99.9,30.01,ENE,71,12.0,-999.0,-999,-99.99,,,-99.99,,2013-08-29 23:22:00,
2013-08-29 19:34:00,65.0,-99.9,30.01,ENE,71,12.0,-999.0,-999,-99.99,,,-99.99,,2013-08-29 23:34:00,
2013-08-29 19:53:00,65.0,-99.9,30.00,East,79,6.0,-999.0,-999,-99.99,,,-99.99,,2013-08-29 23:53:00,
2013-08-29 20:02:00,65.0,-99.9,30.00,East,79,6.0,-999.0,-999,-99.99,,,-99.99,,2013-08-30 00:02:00,
2013-08-29 20:12:00,65.0,-99.9,30.00,East,79,6.0,-999.0,-999,-99.99,,,-99.99,,2013-08-30 00:12:00,
2013-08-29 20:22:00,64.0,-99.9,30.00,East,94,8.0,-999.0,-999,-99.99,,,-99.99,,2013-08-30 00:22:00,
2013-08-29 20:30:00,64.0,-99.9,30.00,NE,45,10.0,-999.0,-999,-99.99,,,-99.99,,2013-08-30 00:30:00,
2013-08-29 20:32:00,64.0,-99.9,30.00,East,94,8.0,-999.0,-999,-99.99,,,-99.99,,2013-08-30 00:32:00,
2013-08-29 20:52:00,64.0,-99.9,30.00,NE,45,10.0,-999.0,-999,-99.99,,,-99.99,,2013-08-30 00:52:00,
2013-08-29 21:02:00,64.0,-99.9,30.00,NE,45,10.0,-999.0,-999,-99.99,,,-99.99,,2013-08-30 01:02:00,
2013-08-29 21:12:00,64.0,-99.9,30.00,NE,45,10.0,-999.0,-999,-99.99,,,-99.99,,2013-08-30 01:12:00,
2013-08-29 21:22:00,64.0,-99.9,30.00,NE,45,10.0,-999.0,-999,-99.99,,,-99.99,,2013-08-30 01:22:00,
2013-08-29 21:52:00,63.0,-99.9,30.00,NE,44,6.0,-999.0,-999,-99.99,,,-99.99,,2013-08-30 01:52:00,
2013-08-29 22:02:00,63.0,-99.9,30.00,NE,44,6.0,-999.0,-999,-99.99,,,-99.99,,2013-08-30 02:02:00,
2013-08-29 22:22:00,63.0,-99.9,30.00,NE,42,7.0,-999.0,-999,-99.99,,,-99.99,,2013-08-30 02:22:00,
2013-08-29 22:32:00,63.0,-99.9,30.00,NE,42,7.0,-999.0,-999,-99.99,,,-99.99,,2013-08-30 02:32:00,
2013-08-29 22:52:00,63.0,-99.9,30.00,NNE,27,9.0,-999.0,-999,-99.99,,,-99.99,,2013-08-30 02:52:00,
2013-08-29 23:02:00,63.0,-99.9,30.00,NNE,27,9.0,-999.0,-999,-99.99,,,-99.99,,2013-08-30 03:02:00,
2013-08-29 23:12:00,63.0,-99.9,30.00,NNE,27,9.0,-999.0,-999,-99.99,,,-99.99,,2013-08-30 03:12:00,
2013-08-29 23:22:00,63.0,-99.9,30.00,NNE,27,10.0,-999.0,-999,-99.99,,,-99.99,,2013-08-30 03:22:00,
2013-08-29 23:34:00,63.0,-99.9,30.00,NNE,27,10.0,-999.0,-999,-99.99,,,-99.99,,2013-08-30 03:34:00,
2013-08-29 23:55:00,63.0,-99.9,29.99,NNE,25,10.0,-999.0,-999,-99.99,,,-99.99,,2013-08-30 03:55:00,